Valle del Fuerte International Airport

Jump to: basic info | weather | frequencies | runways | comments

Related pages: nearby airports | nearby navaids | notams | map

Basic information (top)

Codes: LMM MMLM
Location: lon 25.685200, lat -109.081001, elev 16 ft / 5 m msl
Status: medium_airport
Scheduled airline service: yes
Links: Wikipedia Mobile

Weather (top)

Current conditions (rec'd 2015/03/06 02:46Z):

MMLM 060246Z 32010KT 10SM BKN220 18/12 A2994 RMK SLP139 8/008

Airport forecast (rec'd 2015/03/03 18:21Z):

TAF COR MMLM 031817Z 0318/0418 26010KT P6SM -RA BKN080 OVC200 
      TEMPO 0321/0401 4SM RA SCT030 OVC080 
     FM040300 04006KT P6SM BKN030 OVC080 
      BECMG 0407/0408 5SM -RA BKN015 OVC030 
      TEMPO 0407/0411 OVC010 
     FM041100 28010KT P6SM BKN030 
     FM041600 30015KT P6SM SCT040

Frequencies (top)

Verify before use: may be inaccurate or out of date.

TWR: 118.8 MHz (MOCHIS TWR)

Runways (top)

09/27: 6,562 x 148 ft (2,000 x 45 m) — paved — lighted

Latest comments (top)

No comments yet for Valle del Fuerte International Airport

More... (top)

See also NOTAMs and nearby airports and navaids, or visit the Valle del Fuerte International Airport page at the main OurAirports website..